Date,TemperatureHighF,TemperatureAvgF,TemperatureLowF,DewpointHighF,DewpointAvgF,DewpointLowF,HumidityHigh,HumidityAvg,HumidityLow,PressureMaxIn,PressureMinIn,WindSpeedMaxMPH,WindSpeedAvgMPH,GustSpeedMaxMPH,PrecipitationSumIn
2013-1-1,35.6,28.7,14.2,16.5,4.0,-9.2,46,34,28,29.85,29.64,0,0,0,0.00
2013-1-2,25.5,15.2,1.4,2.1,-7.0,-18.0,39,36,33,30.06,29.82,0,0,0,0.00
2013-1-3,21.2,7.0,-5.8,-3.1,-14.6,-24.3,42,36,26,30.06,29.88,0,0,0,0.00
2013-1-4,38.1,28.6,14.9,14.7,6.6,-4.0,64,40,30,29.88,29.73,0,0,0,0.00
2013-1-5,39.2,31.9,23.5,11.6,6.4,0.4,41,34,26,30.14,29.76,0,0,0,16.89
2013-1-6,39.4,30.2,22.8,22.1,12.4,1.8,72,48,38,30.11,29.85,0,0,0,0.00
2013-1-7,35.2,29.4,21.2,16.8,7.0,-1.9,49,39,27,30.29,29.88,0,0,0,0.00
2013-1-8,44.1,31.4,19.6,15.1,8.1,2.5,52,38,28,30.29,30.17,0,0,0,0.00
2013-1-9,41.2,31.1,20.7,22.0,12.1,5.7,58,45,30,30.29,29.91,0,0,0,0.00
2013-1-10,43.5,36.7,28.6,17.9,10.1,6.2,45,33,28,30.47,29.97,0,0,0,0.00
2013-1-11,36.5,30.6,24.1,25.5,13.8,7.2,74,50,33,30.47,30.11,0,0,0,0.04
2013-1-12,42.3,37.1,32.7,36.7,31.6,25.5,88,80,74,30.11,30.06,0,0,0,0.08
2013-1-13,45.9,41.6,37.0,45.0,39.3,33.8,98,92,87,30.09,29.91,0,0,0,0.00
2013-1-14,57.7,45.4,35.1,56.7,31.7,10.0,98,66,27,30.20,29.79,0,0,0,0.04
2013-1-15,39.2,33.6,28.8,14.3,8.7,5.5,41,35,29,30.26,30.14,0,0,0,0.00
2013-1-16,33.1,30.0,26.6,20.4,15.4,7.7,69,55,38,30.14,29.76,0,0,0,0.00
2013-1-17,37.6,30.6,22.3,22.8,12.1,-4.6,72,48,30,30.03,29.76,0,0,0,0.00
2013-1-18,22.8,16.2,7.9,-4.6,-11.8,-19.1,34,27,25,30.29,29.97,0,0,0,0.00
2013-1-19,42.4,31.8,18.3,11.5,4.6,-6.0,34,31,28,30.20,29.76,0,0,0,0.00
2013-1-20,46.2,34.9,21.2,16.8,8.4,-6.0,43,33,20,29.88,29.49,0,0,0,0.00
2013-1-21,26.2,19.3,13.8,4.8,-6.1,-14.4,56,32,25,29.97,29.70,0,0,0,0.04
2013-1-22,22.3,13.6,5.4,6.6,-7.3,-20.0,59,40,25,29.97,29.67,0,0,0,0.00
2013-1-23,11.7,4.6,-1.5,-14.8,-20.6,-26.0,29,29,29,30.03,29.94,0,0,0,0.00
2013-1-24,16.2,4.0,-8.3,-12.6,-22.7,-32.0,29,27,23,30.14,29.97,0,0,0,0.00
2013-1-25,18.5,9.4,0.0,-12.2,-19.8,-28.2,27,24,23,30.20,29.97,0,0,0,0.00
2013-1-26,21.0,11.0,4.3,-5.7,-16.5,-22.3,40,27,22,30.14,29.91,0,0,0,0.00
2013-1-27,27.3,15.5,7.3,-4.7,-13.8,-19.6,35,26,22,30.38,30.14,0,0,0,0.00
2013-1-28,20.7,15.9,9.5,5.5,-6.3,-20.0,54,38,24,30.35,29.94,0,0,0,0.00
2013-1-29,33.1,25.9,19.2,23.0,13.6,5.5,71,59,54,30.09,29.94,0,0,0,0.00
2013-1-30,53.2,42.1,31.3,52.7,39.2,23.0,98,90,71,30.03,29.35,0,0,0,0.08
2013-1-31,60.3,42.4,26.2,59.1,24.8,-1.3,98,56,26,29.52,28.87,0,0,0,0.94
2013-2-1,28.8,23.4,17.4,-0.3,-5.3,-11.6,32,28,23,30.00,29.52,0,0,0,0.00
2013-2-2,27.9,19.9,10.0,-2.7,-8.6,-15.9,30,27,24,30.11,29.91,0,0,0,0.00
2013-2-3,32.0,21.9,13.5,4.6,-2.7,-6.3,42,33,28,29.94,29.64,0,0,0,0.00
2013-2-4,25.9,20.0,13.5,-1.2,-6.2,-13.0,43,31,25,29.82,29.64,0,0,0,0.00
2013-2-5,33.8,20.0,10.8,3.7,-6.7,-15.2,43,30,25,29.91,29.82,0,0,0,0.00
2013-2-6,34.2,25.9,19.0,13.5,3.3,-11.0,56,39,23,30.20,29.82,0,0,0,0.00
2013-2-7,28.0,19.5,9.3,-5.0,-10.4,-17.9,29,25,23,30.41,30.20,0,0,0,0.00
2013-2-8,23.7,20.4,15.4,4.8,-0.6,-9.1,59,41,25,30.35,29.70,0,0,0,0.00
2013-2-9,22.1,15.6,10.0,7.0,-2.3,-14.2,64,46,30,30.17,29.67,0,0,0,0.00
2013-2-10,36.9,18.6,3.2,1.4,-10.2,-20.0,34,27,20,30.35,30.14,0,0,0,0.04
2013-2-11,36.7,28.3,19.0,31.1,12.7,-11.1,80,54,25,30.23,29.55,0,0,0,0.12
2013-2-12,39.7,34.5,31.8,29.0,18.0,9.1,80,53,33,29.82,29.55,0,0,0,0.12
2013-2-13,31.8,29.7,27.0,9.6,7.6,3.8,40,39,34,29.79,29.67,0,0,0,0.00
2013-2-14,46.6,32.4,21.6,13.5,6.7,2.8,46,34,22,29.88,29.64,0,0,0,0.00
2013-2-15,52.5,36.8,27.0,21.8,11.9,4.4,65,37,21,29.88,29.82,0,0,0,0.00
2013-2-16,37.4,30.6,21.7,17.4,6.8,-7.1,55,37,27,29.91,29.70,0,0,0,0.00
2013-2-17,21.7,16.3,9.7,-7.1,-10.9,-17.6,31,28,26,29.70,29.44,0,0,0,0.00
2013-2-18,29.8,17.3,7.2,-3.9,-13.0,-19.8,29,25,20,30.03,29.67,0,0,0,0.00
2013-2-19,40.6,29.6,15.3,30.1,6.2,-13.5,76,40,25,30.06,29.49,0,0,0,0.04
2013-2-20,35.2,25.4,21.2,28.5,0.2,-3.4,76,33,30,29.70,29.49,0,0,0,0.04
2013-2-21,28.0,22.2,17.6,2.8,-1.9,-6.0,43,34,28,30.17,29.67,0,0,0,0.00
2013-2-22,42.4,29.8,20.7,11.5,5.6,2.2,47,36,26,30.29,30.17,0,0,0,0.00
2013-2-23,34.0,31.3,29.1,22.3,13.8,4.6,69,49,33,30.20,29.85,0,0,0,0.00
2013-2-24,36.7,32.4,30.2,30.5,25.6,22.1,79,76,69,29.85,29.67,0,0,0,0.08
2013-2-25,36.5,32.1,27.0,29.8,25.6,21.3,80,77,73,30.14,29.82,0,0,0,0.08
2013-2-26,42.1,33.9,29.5,35.9,22.4,14.4,79,64,46,30.23,30.06,0,0,0,0.12
2013-2-27,37.0,34.1,32.0,29.9,25.0,15.8,77,70,50,30.06,29.55,0,0,0,0.28
2013-2-28,45.0,35.5,31.1,36.0,27.1,23.4,79,72,53,29.55,29.49,0,0,0,0.47
2013-3-1,42.8,35.8,32.2,28.7,18.4,10.8,78,51,32,29.64,29.49,0,0,0,0.00
2013-3-2,38.5,33.6,28.6,14.3,12.5,8.9,45,41,34,29.64,29.55,0,0,0,0.00
2013-3-3,37.0,29.9,25.0,18.0,11.8,7.5,55,46,39,29.61,29.52,0,0,0,0.00
2013-3-4,37.8,30.0,24.4,10.8,7.6,5.2,46,38,30,29.73,29.55,0,0,0,0.00
2013-3-5,46.8,34.3,25.5,14.9,10.3,5.6,45,37,27,30.00,29.73,0,0,0,0.00
2013-3-6,37.6,34.0,31.5,25.0,17.3,12.1,65,50,42,30.06,29.97,0,0,0,0.00
2013-3-7,35.6,31.9,29.8,21.8,16.1,11.6,67,52,40,30.06,29.97,0,0,0,0.00
2013-3-8,39.7,32.6,28.2,24.4,15.8,6.9,78,53,30,30.14,29.94,0,0,0,0.00
2013-3-9,56.8,40.4,26.6,13.8,8.7,0.4,47,29,17,30.23,30.11,0,0,0,0.00
2013-3-10,57.2,40.4,25.3,16.9,11.0,0.3,45,31,19,30.29,30.17,0,0,0,0.04
2013-3-11,46.0,39.7,32.9,28.7,21.4,16.0,69,49,35,30.20,30.03,0,0,0,0.00
2013-3-12,51.8,46.7,39.7,48.5,41.2,28.7,89,81,56,30.03,29.64,0,0,0,0.98
2013-3-13,47.7,38.9,31.3,32.3,14.9,1.4,74,40,22,29.73,29.67,0,0,0,0.00
2013-3-14,31.3,25.3,17.4,9.6,-0.8,-9.0,40,32,27,29.76,29.67,0,0,0,0.00
2013-3-15,36.9,25.9,13.5,17.8,2.4,-8.1,57,37,22,29.79,29.55,0,0,0,0.00
2013-3-16,39.2,28.1,20.7,14.3,2.6,-6.4,58,35,21,29.79,29.61,0,0,0,0.00
2013-3-17,34.3,25.6,18.7,1.5,-3.5,-11.4,41,28,20,30.20,29.79,0,0,0,0.00
2013-3-18,37.8,24.5,9.7,10.4,-5.5,-17.6,51,27,20,30.35,30.09,0,0,0,0.00
2013-3-19,33.8,28.6,25.2,22.1,16.7,9.5,69,61,50,30.09,29.61,0,0,0,0.00
2013-3-20,37.4,27.6,21.0,16.8,8.7,1.5,71,47,30,29.70,29.61,0,0,0,0.00
2013-3-21,43.7,29.2,17.8,6.8,1.9,-5.1,47,32,20,29.70,29.52,0,0,0,0.04
2013-3-22,39.9,28.3,18.5,9.3,2.6,-4.0,40,33,24,29.67,29.55,0,0,0,0.00
2013-3-23,42.3,31.7,23.4,9.1,5.4,2.0,46,33,23,29.73,29.58,0,0,0,0.00
2013-3-24,45.7,35.0,29.3,12.1,7.0,3.8,37,31,25,29.76,29.67,0,0,0,0.00
2013-3-25,46.0,33.7,25.7,15.6,9.7,4.1,44,37,28,29.70,29.47,0,0,0,0.00
2013-3-26,46.0,36.8,31.5,18.9,10.3,0.8,51,34,22,29.73,29.49,0,0,0,0.00
2013-3-27,50.4,38.9,29.5,14.4,8.5,2.3,37,28,21,29.82,29.70,0,0,0,0.00
2013-3-28,48.9,39.4,32.5,28.2,16.4,11.1,67,41,27,29.97,29.82,0,0,0,0.00
2013-3-29,54.7,42.1,34.5,20.4,16.0,12.7,47,35,23,30.00,29.91,0,0,0,0.00
2013-3-30,56.5,42.9,31.3,17.6,11.3,1.0,45,29,17,30.03,29.94,0,0,0,0.00
2013-3-31,55.8,40.9,26.1,27.1,11.3,-0.6,62,32,17,30.03,29.67,0,0,0,0.08
2013-4-1,57.0,39.6,28.6,40.5,20.5,-2.0,76,50,24,29.73,29.47,0,0,0,0.28
2013-4-2,36.7,28.3,23.5,3.4,-1.5,-4.3,32,27,22,29.85,29.73,0,0,0,0.00
2013-4-3,43.5,32.2,23.9,5.4,-0.0,-3.7,31,25,20,30.09,29.82,0,0,0,0.00
2013-4-4,56.5,39.3,24.8,12.5,4.8,-2.9,33,24,17,30.20,29.91,0,0,0,0.00
2013-4-5,57.7,42.2,32.9,18.0,12.4,4.5,53,32,17,29.91,29.64,0,0,0,0.00
2013-4-6,46.6,33.8,24.4,8.6,2.0,-7.4,36,26,19,30.20,29.85,0,0,0,0.00
2013-4-7,56.1,40.2,27.5,26.5,9.0,-5.4,54,28,20,30.20,29.85,0,0,0,0.00
2013-4-8,66.6,50.1,35.6,35.4,22.9,13.1,76,40,17,30.00,29.88,0,0,0,0.00
2013-4-9,64.9,53.8,43.7,43.4,26.7,12.7,73,38,21,29.97,29.82,0,0,0,0.04
2013-4-10,49.5,47.0,45.0,30.2,26.3,23.8,56,45,37,29.94,29.85,0,0,0,0.20
2013-4-14,48.9,42.6,34.5,21.9,14.5,8.4,51,32,27,30.14,29.88,0,0,0,1.38
2013-4-15,63.7,45.3,28.0,21.9,16.0,8.4,55,33,18,30.29,30.14,0,0,0,0.00
2013-4-16,64.0,50.3,38.1,47.6,27.5,13.5,81,43,25,30.26,29.97,0,0,0,0.20
2013-4-17,63.9,52.7,42.8,48.8,20.0,7.7,81,31,16,30.29,30.00,0,0,0,0.04
2013-4-18,62.6,49.2,33.1,31.4,16.6,8.3,49,28,19,30.35,30.03,0,0,0,0.00
2013-4-19,70.0,59.2,48.2,56.9,44.9,30.6,91,62,34,30.03,29.55,0,0,0,0.20
2013-4-20,54.9,45.8,34.7,46.7,22.8,3.2,80,46,21,30.17,29.58,0,0,0,0.51
2013-4-21,55.0,39.9,29.3,12.3,5.6,-0.1,31,24,18,30.56,30.17,0,0,0,0.20
2013-4-22,60.1,42.7,28.0,17.3,9.1,-0.6,40,26,17,30.65,30.50,0,0,0,0.20
2013-4-23,41.0,36.3,29.8,27.6,19.5,10.3,68,51,40,30.50,30.09,0,0,0,0.00
2013-4-24,76.5,58.8,37.0,36.7,28.2,22.6,73,37,15,30.09,29.70,0,0,0,0.00
2013-4-25,61.7,50.6,41.5,41.2,18.9,4.5,72,31,16,30.20,29.70,0,0,0,0.00
2013-4-26,65.7,48.9,32.4,20.9,15.3,4.5,47,27,18,30.35,30.20,0,0,0,0.00
2013-4-27,70.9,52.3,36.3,25.1,18.3,9.7,52,29,15,30.35,30.20,0,0,0,0.00
2013-4-28,75.2,56.5,36.9,25.8,18.8,10.1,44,24,15,30.26,30.09,0,0,0,0.00
2013-4-29,68.9,55.3,46.2,27.6,19.4,10.1,36,25,17,30.17,30.11,0,0,0,0.00
2013-4-30,77.2,60.3,48.7,25.9,18.0,10.1,27,20,14,30.26,30.17,0,0,0,0.00
2013-5-1,81.0,60.9,41.4,28.6,17.8,6.0,30,19,14,30.38,30.26,0,0,0,0.00
2013-5-2,84.9,60.5,44.6,33.5,23.7,10.4,48,27,13,30.41,30.23,0,0,0,0.00
2013-5-3,73.2,55.3,39.4,28.2,21.3,10.1,43,28,16,30.44,30.26,0,0,0,0.00
2013-5-4,77.5,58.4,42.3,40.9,24.9,6.4,66,32,15,30.29,30.14,0,0,0,0.00
2013-5-5,78.4,56.1,37.2,27.0,19.7,8.1,47,26,14,30.23,30.11,0,0,0,0.00
2013-5-6,79.7,57.6,38.7,33.1,23.6,14.4,63,31,15,30.20,30.06,0,0,0,0.00
2013-5-7,84.7,65.5,47.7,44.2,32.9,23.1,70,35,13,30.11,30.00,0,0,0,0.00
2013-5-8,76.5,62.1,52.9,55.8,44.3,32.9,77,55,23,30.11,29.97,0,0,0,0.16
2013-5-9,71.6,61.5,55.6,57.7,48.1,39.0,82,64,33,29.97,29.82,0,0,0,0.00
2013-5-10,81.0,65.5,53.1,60.4,43.2,33.7,82,50,20,29.91,29.82,0,0,0,0.00
2013-5-11,67.3,63.0,58.3,60.9,53.3,37.2,85,72,35,29.82,29.61,0,0,0,0.51
2013-5-12,70.5,58.9,45.1,58.2,36.5,13.2,85,50,19,29.76,29.55,0,0,0,0.00
2013-5-13,56.3,46.0,40.6,20.8,14.4,12.4,33,28,22,30.03,29.76,0,0,0,0.00
2013-5-14,61.2,47.6,38.1,24.1,17.3,12.1,41,30,20,30.20,30.00,0,0,0,0.00
2013-5-15,62.4,48.9,33.8,46.2,27.8,12.2,77,47,21,30.29,29.79,0,0,0,0.04
2013-5-16,78.6,64.1,48.0,45.3,30.3,15.8,80,36,15,30.11,29.73,0,0,0,0.00
2013-5-17,70.5,57.1,45.7,28.9,24.1,17.1,43,29,17,30.68,29.94,0,0,0,0.00
2013-5-18,76.1,58.7,40.5,40.3,26.3,17.6,63,32,15,31.59,30.32,0,0,0,0.00
2013-5-19,67.1,56.2,46.9,49.5,39.2,29.6,83,55,31,31.71,30.62,0,0,0,0.12
2013-5-20,80.6,66.5,54.5,63.5,49.5,43.0,86,59,30,31.89,30.11,0,0,0,0.00
2013-5-21,89.2,69.9,52.7,63.8,50.1,38.6,83,54,22,31.09,29.91,0,0,0,0.67
2013-5-22,75.7,63.6,52.3,62.6,54.1,43.2,85,72,47,31.53,30.20,0,0,0,0.87
2013-5-23,76.3,68.9,61.7,72.1,63.3,56.7,89,83,64,31.74,30.44,0,0,0,1.50
2013-5-24,74.5,61.6,48.7,70.7,54.4,40.2,89,78,59,32.06,30.62,0,0,0,0.39
2013-5-25,50.5,47.5,42.1,46.5,43.2,38.5,88,85,77,32.06,32.06,0,0,0,0.67
2013-5-26,60.3,50.2,42.1,43.7,32.6,25.1,88,55,28,32.06,32.06,0,0,0,0.00
2013-5-27,76.1,59.8,41.5,44.6,28.5,20.1,73,37,15,32.06,32.06,0,0,0,0.00
2013-5-28,77.7,61.3,44.4,45.6,30.4,22.9,66,35,15,32.06,32.06,0,0,0,0.00
2013-5-29,67.5,61.4,56.8,58.8,51.9,33.5,82,71,38,32.06,32.06,0,0,0,0.43
2013-5-30,91.2,76.5,61.9,72.2,54.0,43.3,87,53,20,32.06,30.29,0,0,0,0.00
2013-5-31,94.8,81.3,66.4,69.6,49.3,38.8,75,38,17,31.71,30.00,0,0,0,0.00
2013-6-1,92.1,80.1,67.5,57.9,48.6,39.0,62,36,18,30.82,30.03,0,0,0,0.00
2013-6-2,89.2,75.9,68.5,64.1,56.2,49.0,78,54,26,32.06,30.65,0,0,0,0.28
2013-6-3,77.7,67.8,53.6,65.3,48.2,23.9,85,55,24,32.06,32.06,0,0,0,0.08
2013-6-4,70.3,59.5,47.7,30.7,27.5,21.8,40,30,22,32.06,32.06,0,0,0,0.00
2013-6-5,74.5,61.5,48.0,46.1,31.5,23.6,62,35,21,32.06,32.06,0,0,0,0.00
2013-6-6,72.7,61.4,49.8,46.9,34.0,27.4,61,38,23,32.06,32.06,0,0,0,0.04
2013-6-7,54.7,52.6,51.1,49.1,45.4,39.4,84,77,59,32.06,32.06,0,0,0,1.46
2013-6-8,73.9,61.7,51.1,63.2,49.5,43.2,88,67,38,30.65,18.78,0,0,0,0.67
2013-6-9,77.7,67.6,55.9,58.8,43.0,34.9,77,45,23,18.78,18.78,0,0,0,0.00
2013-6-10,72.7,62.4,55.0,55.3,48.5,40.9,78,61,36,18.78,18.78,0,0,0,0.67
2013-6-11,63.3,59.9,57.2,58.2,54.6,50.8,84,83,78,18.78,18.78,0,0,0,0.79
2013-6-12,70.7,63.5,58.1,57.5,46.9,37.0,87,59,33,18.78,18.78,0,0,0,0.63
2013-6-13,62.4,57.5,52.0,54.6,49.1,39.2,82,74,50,18.78,18.78,0,0,0,0.75
2013-6-14,79.9,65.7,53.6,67.7,47.5,37.0,86,59,23,18.78,18.78,0,0,0,0.63
2013-6-15,77.0,68.8,57.4,39.9,33.0,27.4,40,27,18,18.78,18.78,0,0,0,0.63
2013-6-16,75.4,63.8,55.9,52.5,39.1,25.2,62,42,26,18.78,18.78,0,0,0,0.00
2013-6-17,82.2,67.3,59.0,57.3,48.3,36.4,77,54,22,18.78,18.78,0,0,0,0.63
2013-6-18,66.6,61.4,56.7,61.2,55.6,50.9,84,81,77,18.78,18.78,0,0,0,0.63
2013-6-19,74.8,64.0,53.4,57.9,40.5,26.0,85,49,21,18.78,18.78,0,0,0,0.63
2013-6-20,78.3,65.2,48.4,51.8,34.6,27.6,70,36,18,18.78,18.78,0,0,0,0.63
2013-6-21,82.8,70.7,56.1,56.1,38.6,27.5,70,35,19,18.78,18.78,0,0,0,0.00
2013-6-22,82.0,71.0,59.4,50.0,43.0,27.2,59,38,24,18.78,18.78,0,0,0,0.63
2013-6-23,89.6,77.1,63.9,54.2,48.5,43.7,54,38,25,18.78,18.78,0,0,0,0.00
2013-6-24,90.5,77.8,68.2,69.5,55.5,43.3,74,50,24,29.99,18.78,0,0,0,0.04
2013-6-25,90.5,76.5,65.8,74.4,58.6,47.2,83,59,24,29.99,29.78,0,0,0,0.16
2013-6-26,81.7,73.5,67.6,76.4,64.9,60.6,87,75,63,29.87,29.78,0,0,0,0.04
2013-6-27,88.7,77.3,68.7,78.0,64.2,58.6,85,67,37,29.87,29.72,0,0,0,0.00
2013-6-28,86.4,73.7,67.6,79.7,67.0,60.9,86,80,72,29.72,29.49,0,0,0,2.72
2013-6-29,90.9,82.6,75.9,79.0,66.0,53.9,86,61,32,29.72,29.52,0,0,0,0.00
2013-6-30,90.1,79.1,72.7,74.7,63.3,53.7,81,62,31,29.93,29.72,0,0,0,2.68
2013-7-1,84.2,78.0,73.4,78.3,72.6,67.9,87,84,78,30.08,29.93,0,0,0,2.68
2013-7-2,89.4,81.7,76.5,80.8,72.5,63.8,88,75,45,30.16,30.05,0,0,0,2.68
2013-7-3,91.0,82.8,76.3,82.2,68.9,59.6,87,65,38,30.22,30.14,0,0,0,0.00
2013-7-4,94.3,84.7,76.1,80.7,63.1,53.5,84,52,29,30.22,30.11,0,0,0,2.68
2013-7-5,92.1,81.6,72.3,69.4,58.4,51.6,70,47,29,30.19,30.05,0,0,0,2.68
2013-7-6,82.8,75.9,68.5,68.1,54.8,43.1,78,51,30,30.11,30.05,0,0,0,2.68
2013-7-7,85.6,74.0,65.5,64.2,53.3,40.7,71,50,33,30.08,29.93,0,0,0,0.00
2013-7-8,86.4,75.3,68.9,73.6,58.1,48.0,84,59,31,30.08,29.93,0,0,0,2.68
2013-7-9,81.1,71.4,66.2,67.7,60.6,55.3,83,70,44,30.11,30.05,0,0,0,2.68
2013-7-10,83.8,73.5,68.5,71.5,65.7,59.5,85,77,51,30.08,29.81,0,0,0,0.71
2013-7-11,85.5,76.4,67.3,77.8,66.6,54.0,92,74,41,29.99,29.78,0,0,0,2.68
2013-7-12,85.5,72.3,63.9,67.3,52.1,44.2,77,52,29,30.22,29.99,0,0,0,0.00
2013-7-13,73.6,67.5,62.2,60.5,54.4,43.6,77,63,47,30.31,30.22,0,0,0,0.00
2013-7-14,90.5,77.0,66.6,77.8,59.6,49.5,86,59,29,30.34,30.25,0,0,0,2.68
2013-7-15,89.2,77.8,68.0,74.3,55.5,47.3,82,50,28,30.25,30.14,0,0,0,0.00
2013-7-16,88.0,75.4,64.8,67.7,52.5,46.6,78,47,29,30.22,30.16,0,0,0,2.68
2013-7-17,88.0,76.9,64.4,71.2,52.5,44.8,81,46,25,30.22,30.02,0,0,0,2.68
2013-7-18,87.4,78.2,69.4,67.9,52.9,47.3,70,44,28,30.05,29.96,0,0,0,0.00
2013-7-19,88.2,79.4,68.5,63.6,53.5,42.5,77,44,28,29.99,29.75,0,0,0,2.68
2013-7-20,85.6,73.4,64.6,54.6,45.8,41.4,52,38,29,29.84,29.72,0,0,0,0.00
2013-7-21,77.5,69.2,59.7,62.2,47.5,43.0,75,48,32,30.02,29.84,0,0,0,0.00
2013-7-22,79.0,68.3,58.6,60.0,52.4,45.2,78,59,37,30.05,29.90,0,0,0,0.20
2013-7-23,77.0,68.4,63.3,72.1,62.0,56.1,88,80,69,29.90,29.57,0,0,0,3.82
2013-7-24,80.1,70.6,56.1,75.2,52.6,36.9,88,57,29,30.02,29.63,0,0,0,2.68
2013-7-25,71.8,61.1,50.0,50.1,42.1,35.2,68,51,32,30.11,30.02,0,0,0,2.68
2013-7-26,69.8,63.3,60.1,61.8,54.5,49.5,82,73,58,30.08,30.02,0,0,0,0.00
2013-7-27,86.0,70.5,55.6,63.4,48.9,44.8,79,50,27,30.08,29.99,0,0,0,0.00
2013-7-28,80.1,70.3,60.6,66.8,52.7,46.1,82,57,31,30.02,29.96,0,0,0,2.68
2013-7-29,83.1,72.0,64.0,65.4,50.4,36.9,79,50,27,30.08,29.99,0,0,0,2.68
2013-7-30,74.1,66.2,56.1,48.2,38.1,34.7,55,36,25,30.14,30.05,0,0,0,2.68
2013-7-31,77.7,67.0,55.6,58.2,42.6,34.6,74,44,23,30.16,30.05,0,0,0,2.68
2013-8-1,79.5,64.4,56.5,64.1,51.3,43.3,83,65,31,30.05,29.87,0,0,0,2.68
2013-8-2,77.7,69.3,61.5,69.7,49.6,34.0,88,56,23,29.90,29.81,0,0,0,2.68
2013-8-3,75.2,66.1,59.2,52.0,40.8,32.8,68,42,23,29.90,29.81,0,0,0,0.00
2013-8-4,74.7,62.5,53.4,52.4,38.2,33.9,67,42,28,29.93,29.84,0,0,0,2.68
2013-8-5,68.5,59.0,49.1,45.6,32.7,27.2,70,40,22,30.08,29.93,0,0,0,2.68
2013-8-6,73.9,61.1,46.4,52.2,35.0,29.0,73,41,22,30.14,30.08,0,0,0,0.00
2013-8-7,79.3,65.2,55.8,51.9,41.5,32.9,71,45,21,30.19,30.11,0,0,0,0.00
2013-8-8,83.5,70.4,61.7,65.4,55.0,45.2,89,61,30,30.11,30.02,0,0,0,0.00
2013-8-9,75.6,71.5,67.8,71.8,66.7,60.8,90,85,71,30.02,29.78,0,0,0,2.68
2013-8-10,82.9,72.7,60.1,67.8,48.5,31.3,89,49,21,30.05,29.84,0,0,0,2.68
2013-8-11,79.0,65.5,52.3,51.9,38.0,33.1,69,39,21,30.11,30.02,0,0,0,0.00
2013-8-12,79.3,66.9,55.6,51.6,39.5,34.1,67,39,22,30.05,29.93,0,0,0,0.00
2013-8-13,72.9,64.2,60.6,65.3,53.8,39.6,82,70,41,29.93,29.72,0,0,0,0.00
2013-8-14,70.5,60.4,50.7,57.7,43.2,33.9,83,56,31,29.99,29.72,0,0,0,0.00
2013-8-15,75.4,61.6,49.8,53.1,37.4,30.4,72,44,22,30.14,29.99,0,0,0,0.00
2013-8-16,77.9,63.3,50.5,55.2,39.0,32.9,77,45,21,30.19,30.11,0,0,0,0.00
2013-8-17,81.0,64.1,50.4,57.2,41.1,33.8,78,47,20,30.31,30.19,0,0,0,0.00
2013-8-18,73.9,64.1,55.0,60.3,48.0,40.5,81,58,34,30.28,30.11,0,0,0,0.00
2013-8-19,78.6,66.5,56.1,62.9,48.5,42.3,83,56,29,30.11,29.99,0,0,0,0.00
2013-8-20,86.5,70.2,57.7,62.5,46.3,38.6,78,46,20,30.14,30.02,0,0,0,0.00
2013-8-21,87.4,71.5,59.2,61.8,46.0,38.2,76,44,21,30.16,30.05,0,0,0,0.00
2013-8-22,85.6,72.1,60.4,59.5,51.8,42.9,76,52,25,30.05,29.84,0,0,0,0.00
2013-8-23,77.5,65.6,54.0,64.1,47.5,35.6,84,56,27,30.16,29.87,0,0,0,0.00
2013-8-24,78.3,61.3,47.7,53.1,37.2,30.2,76,45,21,30.34,30.16,0,0,0,0.00
2013-8-25,80.4,63.8,48.6,56.5,38.4,31.3,79,44,20,30.37,30.19,0,0,0,0.00
2013-8-26,77.5,66.0,57.9,59.6,50.5,37.6,83,59,35,30.19,29.90,0,0,0,0.00
2013-8-27,88.2,72.7,64.8,72.0,59.1,48.7,87,66,29,29.93,29.87,0,0,0,0.00
2013-8-28,88.5,73.3,65.8,71.8,59.4,48.7,85,65,29,30.02,29.87,0,0,0,0.00
2013-8-29,76.3,67.6,63.5,71.1,60.3,56.0,88,78,63,30.08,29.99,0,0,0,0.00
2013-8-30,90.3,74.5,63.0,71.6,56.6,47.4,86,59,23,30.05,29.84,0,0,0,0.00
2013-8-31,80.1,73.5,68.5,72.3,66.2,52.8,88,79,49,29.87,29.78,0,0,0,0.00
2013-9-1,90.9,78.0,70.3,77.3,66.6,53.3,88,71,30,29.90,29.84,0,0,0,0.00
2013-9-2,84.7,76.8,71.1,76.2,69.5,61.8,90,79,50,29.87,29.72,0,0,0,0.00
2013-9-3,80.8,72.5,66.0,76.4,60.7,45.7,88,69,34,29.84,29.72,0,0,0,0.00
2013-9-4,84.0,71.4,63.5,59.5,45.5,35.2,72,43,21,29.93,29.84,0,0,0,0.00
2013-9-5,71.1,62.5,47.8,49.9,37.0,26.1,64,40,22,30.16,29.87,0,0,0,0.00
2013-9-6,71.4,54.5,40.5,49.1,31.3,24.7,77,46,22,30.25,30.11,0,0,0,0.00
2013-9-7,76.3,58.7,44.6,45.7,36.2,28.1,73,46,21,30.11,29.87,0,0,0,0.00
2013-9-8,65.5,57.9,43.9,50.9,33.2,21.0,62,41,24,30.11,29.78,0,0,0,0.00
2013-9-9,66.6,52.9,38.3,47.2,31.7,25.3,76,48,24,30.22,30.11,0,0,0,0.00
2013-9-10,72.9,62.9,52.3,66.7,55.0,37.6,91,76,56,30.14,30.02,0,0,0,0.00
2013-9-11,96.1,80.3,69.1,81.8,64.2,52.7,90,64,28,30.08,29.96,0,0,0,0.00
2013-9-12,78.3,70.9,68.2,70.7,65.6,61.6,90,83,70,29.99,29.66,0,0,0,0.00
2013-9-13,74.3,68.3,60.4,71.0,62.9,50.6,91,83,63,29.81,29.63,0,0,0,0.00
2013-9-14,67.6,60.9,55.4,51.6,46.0,40.2,75,59,40,30.08,29.81,0,0,0,0.00
2013-9-15,73.9,60.6,48.2,57.9,43.5,34.0,81,57,25,30.16,30.05,0,0,0,0.00
2013-9-16,70.7,58.7,44.8,56.0,42.1,27.1,78,56,33,30.28,30.02,0,0,0,0.00
2013-9-17,66.9,51.1,38.3,42.2,29.8,26.7,72,47,24,30.43,30.28,0,0,0,0.00
2013-9-18,76.3,56.8,40.5,51.9,35.9,30.0,80,51,20,30.31,30.14,0,0,0,0.00
2013-9-19,79.3,59.6,45.5,56.7,39.7,31.9,81,53,21,30.16,30.05,0,0,0,10.63
2013-9-20,81.5,61.6,48.7,61.2,43.2,33.5,83,57,20,30.11,29.99,0,0,0,0.00
2013-9-21,73.0,62.9,54.1,56.7,49.8,37.5,85,65,32,30.02,29.69,0,0,0,0.00
2013-9-22,68.0,59.6,50.2,61.0,42.8,28.5,84,57,29,29.87,29.60,0,0,0,0.79
2013-9-23,60.8,50.0,42.3,30.8,28.2,25.1,59,44,26,30.02,29.87,0,0,0,0.00
2013-9-24,65.7,52.1,43.3,30.9,27.3,24.5,54,40,23,30.02,29.87,0,0,0,0.00
2013-9-25,70.5,54.3,41.4,43.2,34.2,29.0,72,49,25,29.99,29.90,0,0,0,0.00
2013-9-26,66.4,54.0,46.0,43.6,36.3,28.9,73,54,25,30.14,29.99,0,0,0,0.00
2013-9-27,63.5,53.2,46.8,48.7,41.1,36.4,77,65,38,30.28,30.14,0,0,0,0.00
2013-9-28,75.7,58.3,46.9,57.0,41.8,34.6,82,59,23,30.34,30.25,0,0,0,0.00
2013-9-29,75.6,57.6,47.3,60.2,40.5,30.1,83,58,22,30.25,30.11,0,0,0,0.00
2013-9-30,73.8,56.2,43.5,50.7,36.6,30.4,78,52,22,30.14,29.99,0,0,0,0.00
2013-10-1,77.5,59.4,45.3,56.6,41.6,36.0,83,57,24,30.02,29.87,0,0,0,0.00
2013-10-2,78.3,63.3,50.7,61.2,42.8,36.0,83,51,24,29.99,29.87,0,0,0,0.00
2013-10-3,78.8,61.2,48.9,44.2,33.8,28.2,62,38,17,30.11,29.99,0,0,0,0.00
2013-10-4,56.8,52.8,48.6,50.4,42.3,29.9,84,69,40,30.11,30.05,0,0,0,0.67
2013-10-5,65.5,59.6,54.0,60.3,53.5,49.2,88,81,68,30.14,30.08,0,0,0,0.04
2013-10-6,60.4,57.1,55.0,55.6,53.1,51.2,89,86,80,30.19,30.11,0,0,0,0.43
2013-10-7,77.5,63.9,55.8,74.2,58.5,50.9,92,83,49,30.11,29.72,0,0,0,0.43
2013-10-8,71.1,58.7,47.8,51.1,36.1,24.3,77,47,22,30.37,29.93,0,0,0,0.00
2013-10-9,70.9,51.3,41.7,50.5,33.6,25.3,76,55,22,30.49,30.34,0,0,0,0.00
2013-10-10,58.5,50.1,41.4,49.4,39.4,34.7,80,68,43,30.34,30.19,0,0,0,0.00
2013-10-11,76.6,57.9,48.0,54.6,40.0,29.7,82,57,21,30.19,30.11,0,0,0,0.00
2013-10-12,59.0,52.3,45.0,50.8,44.1,37.7,80,74,66,30.37,30.16,0,0,0,0.00
2013-10-13,68.4,55.2,46.4,52.2,40.1,32.3,83,60,27,30.43,30.37,0,0,0,0.00
2013-10-14,73.2,57.5,45.1,52.6,39.6,32.4,85,56,24,30.37,30.22,0,0,0,0.00
2013-10-15,67.3,60.1,54.0,50.6,42.0,36.1,69,52,37,30.25,30.16,0,0,0,0.00
2013-10-16,63.0,55.5,50.2,46.9,41.2,35.9,72,60,39,30.16,29.90,0,0,0,0.00
2013-10-17,74.7,61.8,52.9,55.8,39.1,25.0,82,49,19,29.90,29.69,0,0,0,0.00
2013-10-18,63.9,56.9,46.6,58.4,35.2,17.7,90,49,26,29.90,29.60,0,0,0,0.16
2013-10-19,64.8,52.3,41.0,30.8,25.0,21.0,57,36,23,29.96,29.72,0,0,0,0.00
2013-10-20,57.2,48.3,41.5,41.0,23.6,15.3,74,40,25,30.02,29.69,0,0,0,0.04
2013-10-21,66.2,48.6,36.3,28.1,22.2,18.7,57,37,20,30.08,29.96,0,0,0,0.00
2013-10-22,55.2,46.6,38.8,39.1,29.5,15.7,78,52,37,29.96,29.72,0,0,0,0.00
2013-10-23,53.2,42.0,34.0,22.4,16.5,13.5,49,36,26,29.78,29.60,0,0,0,0.00
2013-10-24,49.8,39.6,32.5,18.1,14.1,10.6,44,35,26,29.87,29.66,0,0,0,0.00
2013-10-25,46.9,37.4,32.2,18.5,13.2,7.4,52,37,27,30.11,29.87,0,0,0,0.00
2013-10-26,50.5,39.8,29.7,22.0,15.3,9.2,68,39,21,30.11,29.84,0,0,0,0.00
2013-10-27,49.8,41.7,34.5,19.0,14.6,10.7,40,33,27,30.02,29.75,0,0,0,0.00
2013-10-28,54.1,39.0,28.0,19.0,14.0,5.9,50,36,25,30.31,30.02,0,0,0,0.00
2013-10-29,47.7,32.6,25.2,10.7,5.5,-1.4,51,33,20,30.34,30.31,0,0,0,0.00
2013-10-30,50.5,36.4,27.5,23.4,13.4,3.5,57,39,30,30.31,30.16,0,0,0,0.00
2013-10-31,56.8,43.1,31.6,55.4,38.9,21.3,97,85,56,30.19,29.72,0,0,0,0.39
2013-11-1,67.8,60.7,53.6,59.2,47.0,26.7,93,66,31,29.72,29.40,0,0,0,0.71
2013-11-2,68.0,52.4,42.8,36.9,28.8,23.2,71,43,22,29.78,29.60,0,0,0,0.12
2013-11-3,45.3,35.6,25.7,33.9,11.7,-0.3,71,38,22,30.40,29.78,0,0,0,0.00
2013-11-4,40.3,29.1,21.6,7.0,0.8,-4.8,40,30,21,30.64,30.40,0,0,0,0.04
2013-11-5,48.7,34.6,21.9,19.2,9.9,-1.0,46,36,26,30.64,30.43,0,0,0,0.00
2013-11-6,59.0,46.9,37.4,33.1,25.5,19.0,65,44,27,30.43,29.99,0,0,0,0.00
2013-11-7,55.2,47.5,35.6,47.1,33.1,7.7,74,58,30,29.99,29.72,0,0,0,0.08
2013-11-8,43.5,34.3,27.1,22.0,10.4,4.5,53,37,29,30.05,29.81,0,0,0,0.00
2013-11-9,44.6,35.0,27.1,13.2,8.1,2.0,37,32,25,30.16,29.96,0,0,0,0.00
2013-11-10,45.3,39.5,33.8,25.1,18.2,11.1,55,42,34,29.96,29.72,0,0,0,0.00
2013-11-11,49.8,39.9,32.4,13.9,10.9,8.7,38,30,21,30.05,29.84,0,0,0,0.00
2013-11-12,41.0,29.0,21.2,16.7,5.6,-2.6,53,37,30,30.16,29.84,0,0,0,0.00
2013-11-13,31.6,25.2,19.2,2.2,-1.9,-6.9,40,30,23,30.19,30.08,0,0,0,0.00
2013-11-14,49.1,34.2,23.4,14.9,5.5,-0.2,36,30,21,30.08,30.02,0,0,0,0.00
2013-11-15,54.1,40.4,29.5,11.6,5.3,-0.9,30,23,18,30.16,30.08,0,0,0,0.00
2013-11-16,59.9,43.6,34.0,19.3,12.6,6.5,37,29,19,30.25,30.14,0,0,0,0.00
2013-11-17,52.7,41.4,33.6,49.8,30.2,10.9,90,65,33,30.25,29.78,0,0,0,0.00
2013-11-18,61.0,53.0,40.3,55.6,31.0,10.4,93,49,22,29.78,29.49,0,0,0,0.39
2013-11-19,40.1,32.3,23.4,10.2,4.4,-1.5,36,30,27,30.28,29.66,0,0,0,0.00
2013-11-20,36.3,26.0,19.8,4.3,-0.9,-5.1,42,31,22,30.58,30.28,0,0,0,0.00
2013-11-21,45.1,29.7,15.8,11.3,3.7,-2.6,51,34,20,30.58,30.31,0,0,0,0.00
2013-11-22,41.2,36.8,33.1,37.0,25.4,8.2,85,65,33,30.31,29.81,0,0,0,0.16
2013-11-23,42.1,32.3,21.7,37.2,8.2,-7.1,85,37,26,29.93,29.75,0,0,0,0.00
2013-11-24,22.5,16.2,11.1,-5.0,-10.8,-15.7,34,29,25,30.16,29.78,0,0,0,0.00
2013-11-25,32.0,19.2,7.5,-1.6,-10.1,-19.5,29,26,23,30.28,30.14,0,0,0,0.00
2013-11-26,31.3,27.1,23.0,19.9,8.3,-3.6,66,46,29,30.25,29.99,0,0,0,0.12
2013-11-27,41.0,34.4,29.7,35.5,28.1,17.1,87,78,58,29.99,29.28,0,0,0,1.97
2013-11-28,30.9,22.5,14.7,17.6,-2.1,-12.1,59,34,24,30.34,29.46,0,0,0,0.00
2013-11-29,29.1,18.7,11.8,1.4,-5.6,-14.3,51,34,23,30.67,30.34,0,0,0,0.00
2013-11-30,27.9,16.8,4.5,2.4,-8.8,-20.8,50,31,26,30.70,30.34,0,0,0,0.00
2013-12-1,38.8,29.8,23.4,20.6,13.0,-1.5,61,50,33,30.34,29.96,0,0,0,0.00
2013-12-2,36.7,32.1,29.1,27.8,22.3,15.7,76,67,56,29.99,29.87,0,0,0,0.00
2013-12-3,44.2,32.8,29.5,34.7,25.7,21.8,81,75,62,29.93,29.84,0,0,0,0.00
2013-12-4,42.8,31.3,24.4,27.0,17.1,9.9,79,58,33,30.14,29.93,0,0,0,0.00
2013-12-5,51.8,39.2,29.3,50.4,29.8,13.4,95,70,50,30.14,29.87,0,0,0,0.04
2013-12-6,52.7,44.3,33.8,51.3,35.5,16.8,95,74,38,30.11,29.81,0,0,0,0.04
2013-12-7,37.8,32.4,26.8,24.4,12.4,0.2,70,45,30,30.37,30.05,0,0,0,0.00
2013-12-8,32.0,26.6,22.8,4.1,0.8,-2.3,36,32,28,30.49,30.37,0,0,0,0.00
2013-12-9,33.8,27.4,22.5,27.5,13.5,2.0,78,56,36,30.40,29.84,0,0,0,0.00
2013-12-10,33.8,28.7,19.8,27.7,13.2,-4.1,79,53,34,29.93,29.75,0,0,0,0.00
2013-12-11,30.0,23.7,19.6,4.0,-0.2,-4.5,46,35,25,30.11,29.93,0,0,0,0.00
2013-12-12,23.4,15.4,9.5,4.8,-8.7,-17.7,53,34,24,30.19,29.96,0,0,0,0.00
2013-12-13,26.6,15.1,4.6,6.3,-6.6,-17.4,49,38,27,30.31,29.87,0,0,0,0.00
2013-12-14,8.4,4.5,0.3,-9.0,-12.6,-16.4,44,44,44,30.49,30.08,0,0,0,0.00
2013-12-15,26.4,18.5,8.1,14.3,3.8,-9.3,64,52,44,30.08,29.46,0,0,0,0.00
2013-12-16,24.4,17.5,9.1,5.1,-5.7,-14.7,47,35,27,30.11,29.66,0,0,0,0.00
2013-12-17,9.1,1.9,-6.3,-14.7,-21.2,-28.5,32,32,32,30.16,29.93,0,0,0,0.00
2013-12-18,31.3,18.0,7.2,9.2,-3.1,-16.5,55,39,32,29.99,29.87,0,0,0,0.04
2013-12-19,41.7,30.7,22.1,12.7,8.8,4.8,53,40,28,30.05,29.90,0,0,0,0.04
2013-12-20,42.3,36.9,31.5,21.6,15.1,10.6,50,41,33,30.05,29.87,0,0,0,0.20
2013-12-21,54.9,44.3,39.4,41.8,26.2,16.5,81,50,31,29.90,29.81,0,0,0,0.00
2013-12-22,60.4,53.3,44.4,58.5,49.9,37.2,96,88,71,29.90,29.69,0,0,0,0.08
2013-12-23,48.9,41.5,35.1,44.3,38.0,31.6,89,87,84,30.08,29.87,0,0,0,0.47
2013-12-24,35.1,28.4,19.8,31.6,6.6,-4.7,87,41,30,30.16,30.02,0,0,0,0.00
2013-12-25,21.6,15.0,7.2,-4.2,-8.8,-13.6,37,33,27,30.40,30.16,0,0,0,0.00
2013-12-26,28.2,22.1,15.6,13.7,4.6,-7.4,57,47,34,30.37,30.02,0,0,0,0.00
2013-12-27,34.7,27.2,22.1,11.3,6.4,2.6,55,41,30,30.19,30.11,0,0,0,0.00
2013-12-28,43.0,32.1,23.5,15.5,10.8,3.9,56,41,31,30.14,29.93,0,0,0,0.04
2013-12-29,38.1,33.4,30.6,23.7,15.7,11.2,72,49,35,29.96,29.52,0,0,0,0.47
2013-12-30,33.1,23.9,7.7,26.9,6.7,-11.6,79,49,34,30.11,29.54,0,0,0,0.08
2013-12-31,19.8,10.4,-0.4,2.1,-8.8,-18.9,55,41,36,30.11,29.93,0,0,0,0.00
2014-1-1,21.9,13.7,9.1,-1.9,-8.1,-11.8,45,37,33,30.28,30.08,0,0,0,0.00
2014-1-2,12.0,5.0,-0.8,-9.2,-15.5,-20.8,37,37,37,30.25,29.81,0,0,0,0.00